星链-2741 (STARLINK-2741 )

导读

STARLINK-2741是美国SpaceX公司星链(Starlink)星座中的一颗低轨通信卫星,于2021年5月26日发射入轨。星链计划旨在构建全球卫星互联网星座,为偏远地区提供高速宽带服务,该卫星采用平板设计,搭载霍尔推进器,具备自主避撞能力,服役寿命终结后会主动离轨坠入大气层烧毁,目前已在轨正常运行近5年,为全球网络覆盖提供支撑。

基本信息
目录编号:
48684
目录名称:
STARLINK-2741
国际标识:
2021-044AY
轨道中心:
EARTH
卫星名称:
星链-2741
卫星全名:
星链-2741 (STARLINK-2741 )
卫星状态:
在轨 (已飞行1849 天)
发射日期:
2021-05-26 UTC
国别 :
美国 (US)
星等 :
--
轨道信息
数据来源 国际轨道数据
星历时间: 2026-06-18T02:27:52+0800
20小时前
查看轨道信息
半长轴: 6848.869km
偏心率: 0.0001202
轨道倾角: 53.160°
近地点辐角 78.083°
升交点赤经 332.335°
平近点角 282.030°
近地点: 469.908km
远地点: 471.556km
周期: 94.013分钟
每日圈数: 15.317028
详细信息
固有亮度:
5
最大亮度:
2.5
卫星平台:
Starlink v1.5
覆盖范围:
全球
运营商:
太空探索技术公司
运营商所在国:
美国
制造商(研发单位):
太空探索技术公司
制造商所在国:
美国
使用方式:
暂无
卫星简介
星链(Starlink)计划是由太空探索技术公司(SpaceX)提出的一个巨型低轨卫星互联网星座项目,计划在2019年至2024年间在太空搭建由约1.2万颗卫星组成的“星链”网络,其中1584颗将部署在地球上空550千米处的近地轨道,并从2020年开始工作。该卫星仍在工作。
2D轨道图
3D轨道图
轨道高度分析图
轨道倾角分析图
轨道综合分析图
查看轨道综合分析图